GEFSCGP_prec_meanprecacc_048.txt.gz
Total_Precipitation_Accumulation
0.00 0.00 0.00 0.00 0.00 0.00 0.00 0.00 0.00 0.00 0.00 0.00 0.00 0.00 0.00 0.01 0.01 0.02 0.07 0.16 0.39 0.73 0.88 0.94 0.95 0.82 0.83 0.84 0.83 0.88 0.98 1.13 1.25 1.36 1.41 1.39 1.25 1.16 0.99 0.89 0.83 0.83 0.85 0.99
0.00 0.00 0.00 0.00 0.00 0.00 0.00 0.00 0.00 0.00 0.00 0.00 0.00 0.00 0.01 0.01 0.02 0.02 0.04 0.10 0.22 0.46 0.71 0.75 0.71 0.67 0.71 0.91 1.04 1.07 1.06 1.16 1.24 1.50 1.82 2.00 2.03 1.76 1.40 1.25 1.18 1.08 1.07 1.15
0.00 0.00 0.00 0.00 0.00 0.00 0.00 0.00 0.00 0.00 0.00 0.00 0.00 0.00 0.01 0.02 0.04 0.07 0.10 0.15 0.23 0.31 0.40 0.47 0.51 0.56 0.62 0.74 0.79 0.78 0.81 0.91 0.98 1.15 1.46 1.70 1.97 1.89 1.66 1.45 1.36 1.28 1.25 1.23
0.00 0.00 0.00 0.00 0.00 0.00 0.00 0.00 0.00 0.00 0.00 0.00 0.00 0.00 0.00 0.02 0.04 0.07 0.11 0.17 0.28 0.34 0.38 0.46 0.49 0.50 0.50 0.53 0.53 0.57 0.66 0.77 0.90 1.06 1.29 1.58 1.84 1.81 1.75 1.70 1.50 1.32 1.19 1.10
0.00 0.00 0.00 0.00 0.00 0.00 0.00 0.00 0.00 0.00 0.00 0.00 0.00 0.00 0.00 0.01 0.03 0.05 0.10 0.16 0.24 0.31 0.37 0.41 0.45 0.47 0.47 0.51 0.56 0.62 0.70 0.83 0.95 1.06 1.18 1.35 1.72 1.73 1.59 1.47 1.32 1.21 1.10 1.03
0.00 0.00 0.00 0.00 0.00 0.00 0.00 0.00 0.00 0.00 0.00 0.00 0.01 0.01 0.01 0.02 0.05 0.08 0.14 0.22 0.29 0.33 0.38 0.44 0.49 0.51 0.48 0.51 0.57 0.61 0.64 0.71 0.79 0.84 0.92 0.98 1.16 1.24 1.17 1.12 1.06 0.97 0.89 0.86
0.00 0.00 0.01 0.01 0.01 0.01 0.00 0.02 0.05 0.03 0.01 0.01 0.02 0.02 0.05 0.06 0.06 0.08 0.18 0.32 0.40 0.40 0.38 0.41 0.46 0.49 0.51 0.52 0.53 0.53 0.53 0.55 0.54 0.53 0.53 0.56 0.67 0.81 0.86 0.87 0.88 0.85 0.76 0.70
0.01 0.01 0.03 0.02 0.02 0.04 0.04 0.07 0.20 0.17 0.07 0.04 0.02 0.03 0.13 0.13 0.14 0.16 0.20 0.28 0.33 0.33 0.31 0.31 0.33 0.37 0.41 0.44 0.47 0.47 0.46 0.47 0.48 0.48 0.49 0.47 0.49 0.62 0.73 0.79 0.79 0.75 0.67 0.58
0.01 0.01 0.02 0.01 0.02 0.04 0.12 0.15 0.15 0.28 0.25 0.17 0.05 0.04 0.15 0.16 0.24 0.34 0.38 0.39 0.38 0.35 0.31 0.28 0.28 0.29 0.30 0.31 0.33 0.37 0.41 0.47 0.51 0.53 0.53 0.47 0.50 0.62 0.68 0.74 0.78 0.83 0.82 0.76
0.01 0.00 0.00 0.00 0.02 0.04 0.06 0.09 0.15 0.26 0.27 0.21 0.09 0.09 0.23 0.42 0.44 0.47 0.55 0.55 0.47 0.37 0.31 0.27 0.22 0.20 0.19 0.22 0.28 0.40 0.52 0.56 0.50 0.47 0.44 0.41 0.49 0.65 0.68 0.63 0.64 0.73 0.79 0.80
0.00 0.00 0.01 0.03 0.03 0.04 0.06 0.09 0.18 0.24 0.22 0.23 0.23 0.21 0.21 0.38 0.50 0.51 0.51 0.51 0.45 0.36 0.30 0.26 0.21 0.17 0.17 0.20 0.25 0.36 0.43 0.50 0.48 0.42 0.38 0.35 0.38 0.45 0.51 0.53 0.54 0.59 0.65 0.70
0.00 0.01 0.02 0.03 0.02 0.02 0.05 0.09 0.19 0.31 0.32 0.34 0.37 0.32 0.16 0.21 0.30 0.33 0.33 0.31 0.28 0.25 0.21 0.19 0.18 0.18 0.19 0.22 0.26 0.31 0.34 0.36 0.39 0.38 0.36 0.37 0.36 0.34 0.32 0.35 0.39 0.42 0.46 0.49
0.01 0.04 0.03 0.03 0.06 0.06 0.08 0.07 0.12 0.17 0.24 0.27 0.30 0.28 0.20 0.26 0.33 0.38 0.40 0.38 0.31 0.25 0.22 0.21 0.20 0.20 0.22 0.26 0.30 0.33 0.38 0.38 0.40 0.39 0.38 0.40 0.39 0.36 0.29 0.28 0.29 0.29 0.28 0.26
0.00 0.01 0.02 0.03 0.03 0.03 0.05 0.07 0.12 0.18 0.26 0.22 0.18 0.19 0.29 0.40 0.43 0.42 0.40 0.39 0.35 0.24 0.18 0.19 0.21 0.22 0.23 0.26 0.27 0.28 0.33 0.38 0.43 0.47 0.54 0.54 0.48 0.43 0.35 0.28 0.24 0.21 0.19 0.17
0.00 0.00 0.00 0.01 0.02 0.03 0.04 0.05 0.10 0.14 0.17 0.21 0.16 0.17 0.26 0.35 0.40 0.40 0.34 0.28 0.25 0.21 0.19 0.19 0.22 0.24 0.25 0.25 0.26 0.26 0.28 0.33 0.36 0.42 0.52 0.56 0.51 0.44 0.37 0.29 0.22 0.19 0.17 0.14
0.00 0.00 0.01 0.02 0.06 0.07 0.06 0.05 0.07 0.09 0.10 0.14 0.16 0.19 0.20 0.21 0.26 0.30 0.28 0.25 0.23 0.22 0.19 0.17 0.17 0.17 0.20 0.20 0.19 0.20 0.22 0.24 0.26 0.30 0.36 0.43 0.43 0.39 0.33 0.26 0.19 0.14 0.11 0.11
0.00 0.00 0.01 0.03 0.05 0.09 0.09 0.07 0.07 0.07 0.06 0.12 0.24 0.27 0.21 0.21 0.25 0.26 0.21 0.18 0.17 0.15 0.11 0.10 0.11 0.11 0.10 0.09 0.11 0.15 0.18 0.20 0.26 0.28 0.30 0.35 0.41 0.39 0.30 0.20 0.16 0.13 0.10 0.10
0.01 0.01 0.03 0.07 0.08 0.10 0.07 0.02 0.02 0.05 0.04 0.05 0.13 0.15 0.14 0.15 0.13 0.10 0.08 0.08 0.07 0.06 0.04 0.03 0.03 0.04 0.04 0.04 0.08 0.13 0.17 0.24 0.29 0.32 0.35 0.38 0.39 0.39 0.33 0.24 0.20 0.19 0.16 0.14
0.01 0.01 0.02 0.04 0.06 0.04 0.02 0.02 0.03 0.06 0.07 0.03 0.05 0.07 0.06 0.04 0.06 0.08 0.04 0.02 0.01 0.01 0.01 0.01 0.02 0.03 0.03 0.06 0.11 0.18 0.26 0.34 0.36 0.36 0.35 0.37 0.40 0.45 0.43 0.34 0.25 0.20 0.19 0.16
0.00 0.01 0.01 0.02 0.04 0.06 0.03 0.03 0.04 0.05 0.11 0.05 0.04 0.04 0.03 0.03 0.10 0.13 0.04 0.00 0.00 0.00 0.01 0.01 0.03 0.05 0.08 0.11 0.15 0.22 0.31 0.38 0.40 0.38 0.35 0.35 0.37 0.41 0.47 0.45 0.34 0.25 0.22 0.17
0.00 0.01 0.01 0.02 0.04 0.03 0.01 0.03 0.04 0.11 0.17 0.03 0.01 0.01 0.01 0.03 0.07 0.06 0.02 0.00 0.00 0.01 0.01 0.02 0.06 0.08 0.10 0.11 0.15 0.23 0.31 0.37 0.36 0.33 0.34 0.38 0.41 0.45 0.49 0.51 0.45 0.37 0.29 0.22
0.00 0.01 0.01 0.02 0.05 0.06 0.01 0.00 0.02 0.04 0.03 0.01 0.01 0.01 0.01 0.01 0.01 0.00 0.00 0.01 0.01 0.01 0.02 0.04 0.09 0.13 0.12 0.11 0.16 0.22 0.26 0.30 0.32 0.33 0.37 0.41 0.47 0.45 0.49 0.61 0.61 0.59 0.47 0.29
0.00 0.01 0.01 0.02 0.03 0.02 0.01 0.00 0.01 0.01 0.01 0.01 0.01 0.01 0.01 0.01 0.01 0.01 0.01 0.01 0.01 0.01 0.03 0.06 0.10 0.13 0.17 0.21 0.24 0.27 0.26 0.28 0.33 0.39 0.44 0.44 0.45 0.48 0.55 0.59 0.60 0.56 0.45 0.31
0.00 0.00 0.01 0.03 0.01 0.01 0.01 0.00 0.00 0.00 0.00 0.00 0.00 0.01 0.01 0.01 0.01 0.01 0.01 0.01 0.02 0.03 0.06 0.09 0.15 0.22 0.29 0.36 0.37 0.33 0.32 0.34 0.39 0.47 0.55 0.56 0.54 0.53 0.53 0.56 0.57 0.52 0.39 0.28
0.00 0.00 0.02 0.04 0.02 0.01 0.01 0.01 0.00 0.00 0.00 0.00 0.00 0.01 0.01 0.02 0.02 0.02 0.02 0.03 0.04 0.05 0.07 0.11 0.19 0.26 0.30 0.37 0.46 0.45 0.47 0.51 0.55 0.54 0.53 0.55 0.59 0.65 0.66 0.63 0.62 0.58 0.46 0.32
0.01 0.01 0.03 0.04 0.04 0.04 0.03 0.01 0.00 0.00 0.00 0.01 0.01 0.01 0.02 0.03 0.02 0.02 0.02 0.03 0.04 0.06 0.09 0.14 0.19 0.26 0.32 0.40 0.47 0.48 0.52 0.58 0.64 0.62 0.57 0.58 0.61 0.63 0.65 0.65 0.57 0.50 0.42 0.32

GEFSCGP_prec_meanprecacc_054.txt.gz
Total_Precipitation_Accumulation
0.00 0.00 0.00 0.00 0.00 0.00 0.00 0.00 0.00 0.00 0.00 0.00 0.00 0.00 0.00 0.01 0.01 0.02 0.07 0.16 0.39 0.73 0.89 0.94 0.95 0.83 0.84 0.86 0.84 0.89 0.99 1.14 1.25 1.37 1.43 1.41 1.27 1.19 1.03 0.94 0.87 0.89 0.93 1.09
0.00 0.00 0.00 0.00 0.00 0.00 0.00 0.00 0.00 0.00 0.00 0.00 0.00 0.00 0.01 0.02 0.02 0.02 0.04 0.10 0.22 0.46 0.72 0.76 0.72 0.67 0.72 0.92 1.05 1.07 1.07 1.16 1.24 1.51 1.82 2.01 2.04 1.78 1.41 1.27 1.21 1.12 1.12 1.21
0.00 0.00 0.00 0.00 0.00 0.00 0.00 0.00 0.00 0.00 0.00 0.00 0.00 0.00 0.01 0.02 0.04 0.07 0.10 0.15 0.24 0.32 0.41 0.48 0.51 0.56 0.62 0.74 0.79 0.78 0.81 0.91 0.98 1.15 1.46 1.71 1.97 1.89 1.66 1.45 1.36 1.29 1.27 1.26
0.00 0.00 0.00 0.00 0.00 0.00 0.00 0.00 0.00 0.00 0.00 0.00 0.00 0.00 0.00 0.02 0.04 0.07 0.11 0.18 0.29 0.36 0.39 0.47 0.50 0.51 0.51 0.53 0.54 0.58 0.66 0.77 0.90 1.06 1.29 1.58 1.85 1.81 1.75 1.70 1.50 1.32 1.19 1.11
0.00 0.00 0.00 0.00 0.00 0.00 0.00 0.00 0.00 0.00 0.00 0.00 0.00 0.00 0.00 0.01 0.03 0.06 0.11 0.18 0.26 0.34 0.40 0.44 0.47 0.48 0.48 0.51 0.57 0.62 0.71 0.83 0.95 1.06 1.18 1.35 1.72 1.74 1.59 1.47 1.32 1.21 1.10 1.03
0.00 0.00 0.00 0.00 0.00 0.00 0.00 0.00 0.00 0.00 0.00 0.00 0.01 0.01 0.01 0.02 0.05 0.08 0.15 0.24 0.32 0.37 0.42 0.46 0.51 0.52 0.48 0.51 0.57 0.61 0.64 0.71 0.79 0.85 0.93 0.99 1.17 1.25 1.18 1.12 1.06 0.97 0.89 0.86
0.00 0.00 0.01 0.01 0.01 0.01 0.00 0.02 0.05 0.03 0.01 0.01 0.02 0.02 0.05 0.06 0.06 0.09 0.19 0.34 0.44 0.45 0.42 0.44 0.47 0.49 0.51 0.52 0.53 0.53 0.53 0.56 0.55 0.54 0.54 0.58 0.69 0.82 0.87 0.88 0.88 0.85 0.76 0.70
0.01 0.01 0.03 0.02 0.02 0.04 0.04 0.07 0.20 0.17 0.07 0.04 0.02 0.03 0.13 0.13 0.15 0.16 0.21 0.29 0.35 0.36 0.34 0.34 0.36 0.39 0.43 0.45 0.48 0.48 0.46 0.48 0.49 0.49 0.50 0.48 0.51 0.63 0.74 0.79 0.79 0.75 0.67 0.58
0.01 0.01 0.02 0.01 0.02 0.04 0.12 0.15 0.15 0.28 0.25 0.17 0.05 0.04 0.15 0.16 0.25 0.34 0.38 0.40 0.39 0.36 0.34 0.31 0.31 0.32 0.32 0.33 0.34 0.37 0.42 0.47 0.51 0.53 0.53 0.48 0.51 0.63 0.69 0.75 0.78 0.83 0.82 0.76
0.01 0.00 0.00 0.00 0.02 0.04 0.06 0.09 0.15 0.26 0.27 0.21 0.09 0.09 0.24 0.42 0.45 0.47 0.55 0.55 0.47 0.38 0.33 0.29 0.24 0.22 0.21 0.24 0.29 0.40 0.52 0.56 0.51 0.47 0.44 0.42 0.49 0.66 0.68 0.64 0.65 0.74 0.80 0.80
0.00 0.00 0.01 0.03 0.03 0.04 0.06 0.09 0.18 0.25 0.23 0.24 0.23 0.21 0.21 0.38 0.50 0.52 0.52 0.52 0.46 0.37 0.31 0.27 0.22 0.18 0.18 0.21 0.26 0.36 0.44 0.50 0.48 0.42 0.38 0.35 0.38 0.45 0.51 0.54 0.55 0.60 0.65 0.70
0.00 0.01 0.02 0.03 0.02 0.02 0.05 0.09 0.19 0.31 0.32 0.34 0.37 0.32 0.16 0.21 0.30 0.34 0.34 0.31 0.28 0.25 0.22 0.19 0.18 0.19 0.20 0.23 0.27 0.31 0.34 0.36 0.39 0.38 0.36 0.37 0.36 0.34 0.32 0.36 0.40 0.43 0.47 0.50
0.01 0.04 0.03 0.03 0.06 0.06 0.08 0.07 0.12 0.17 0.24 0.27 0.30 0.29 0.21 0.26 0.33 0.38 0.40 0.38 0.31 0.25 0.22 0.21 0.20 0.20 0.22 0.27 0.31 0.33 0.38 0.38 0.40 0.39 0.38 0.40 0.39 0.36 0.29 0.28 0.29 0.30 0.29 0.27
0.00 0.01 0.02 0.03 0.03 0.03 0.05 0.07 0.12 0.18 0.26 0.22 0.19 0.21 0.30 0.40 0.43 0.42 0.40 0.39 0.35 0.24 0.18 0.19 0.21 0.22 0.24 0.27 0.28 0.28 0.33 0.39 0.44 0.47 0.55 0.54 0.48 0.43 0.36 0.28 0.25 0.22 0.20 0.18
0.00 0.00 0.00 0.01 0.02 0.03 0.04 0.05 0.10 0.14 0.17 0.25 0.19 0.18 0.27 0.35 0.40 0.40 0.34 0.28 0.25 0.21 0.19 0.19 0.22 0.25 0.25 0.25 0.26 0.26 0.29 0.33 0.36 0.42 0.52 0.57 0.51 0.44 0.37 0.30 0.23 0.21 0.19 0.15
0.00 0.00 0.01 0.02 0.06 0.07 0.07 0.05 0.07 0.10 0.11 0.15 0.17 0.19 0.20 0.21 0.27 0.30 0.28 0.26 0.24 0.23 0.20 0.17 0.17 0.17 0.20 0.21 0.20 0.21 0.22 0.24 0.26 0.30 0.36 0.43 0.43 0.39 0.33 0.26 0.20 0.16 0.14 0.13
0.01 0.01 0.01 0.03 0.06 0.09 0.10 0.07 0.07 0.07 0.06 0.12 0.24 0.27 0.21 0.22 0.26 0.27 0.22 0.19 0.18 0.15 0.12 0.10 0.12 0.12 0.11 0.10 0.11 0.16 0.18 0.20 0.26 0.29 0.30 0.36 0.41 0.39 0.30 0.20 0.18 0.16 0.13 0.13
0.01 0.02 0.03 0.07 0.08 0.12 0.08 0.02 0.02 0.05 0.05 0.05 0.13 0.16 0.15 0.16 0.15 0.12 0.10 0.09 0.08 0.06 0.05 0.04 0.04 0.05 0.04 0.04 0.08 0.13 0.17 0.24 0.29 0.32 0.35 0.38 0.39 0.39 0.33 0.25 0.22 0.22 0.21 0.20
0.01 0.01 0.02 0.04 0.06 0.05 0.02 0.02 0.03 0.07 0.07 0.03 0.06 0.08 0.07 0.05 0.07 0.08 0.04 0.02 0.01 0.01 0.01 0.01 0.02 0.03 0.03 0.06 0.11 0.18 0.26 0.34 0.36 0.36 0.36 0.37 0.40 0.45 0.44 0.36 0.28 0.25 0.25 0.24
0.00 0.01 0.01 0.02 0.04 0.06 0.03 0.03 0.04 0.05 0.14 0.07 0.04 0.04 0.03 0.03 0.10 0.13 0.04 0.00 0.00 0.00 0.01 0.01 0.03 0.05 0.08 0.11 0.15 0.22 0.31 0.38 0.40 0.38 0.35 0.36 0.38 0.42 0.48 0.47 0.38 0.32 0.31 0.27
0.00 0.01 0.01 0.02 0.04 0.03 0.01 0.03 0.04 0.12 0.18 0.03 0.01 0.01 0.01 0.03 0.07 0.06 0.02 0.00 0.00 0.01 0.01 0.02 0.06 0.08 0.10 0.11 0.15 0.23 0.32 0.37 0.36 0.33 0.34 0.39 0.42 0.46 0.50 0.53 0.49 0.44 0.40 0.36
0.00 0.01 0.01 0.03 0.06 0.07 0.01 0.00 0.02 0.04 0.03 0.01 0.01 0.01 0.01 0.01 0.01 0.00 0.00 0.01 0.01 0.01 0.02 0.04 0.09 0.13 0.12 0.12 0.17 0.22 0.27 0.31 0.32 0.33 0.38 0.42 0.48 0.46 0.51 0.63 0.65 0.66 0.61 0.49
0.00 0.01 0.01 0.02 0.04 0.02 0.01 0.00 0.01 0.01 0.01 0.01 0.01 0.01 0.01 0.01 0.01 0.01 0.01 0.01 0.01 0.01 0.03 0.06 0.10 0.13 0.17 0.22 0.24 0.28 0.27 0.29 0.34 0.40 0.46 0.46 0.47 0.50 0.57 0.62 0.65 0.64 0.60 0.54
0.00 0.00 0.01 0.03 0.02 0.01 0.01 0.01 0.01 0.00 0.00 0.00 0.00 0.01 0.01 0.01 0.01 0.01 0.01 0.02 0.02 0.03 0.06 0.09 0.15 0.22 0.29 0.36 0.37 0.34 0.33 0.36 0.42 0.50 0.57 0.58 0.57 0.55 0.55 0.61 0.63 0.61 0.55 0.51
0.00 0.00 0.02 0.04 0.02 0.01 0.01 0.01 0.00 0.00 0.00 0.00 0.00 0.01 0.01 0.02 0.02 0.02 0.02 0.03 0.04 0.05 0.07 0.11 0.19 0.27 0.30 0.38 0.46 0.45 0.47 0.53 0.58 0.57 0.55 0.58 0.62 0.69 0.70 0.67 0.68 0.68 0.61 0.53
0.01 0.02 0.03 0.04 0.04 0.04 0.03 0.01 0.00 0.00 0.00 0.01 0.01 0.01 0.02 0.03 0.03 0.02 0.02 0.03 0.04 0.06 0.09 0.14 0.20 0.26 0.32 0.40 0.47 0.49 0.53 0.60 0.67 0.66 0.60 0.62 0.65 0.69 0.72 0.72 0.64 0.58 0.54 0.48

GEFSCGP_prec_meanprecacc_060.txt.gz
Total_Precipitation_Accumulation
0.00 0.00 0.00 0.00 0.00 0.00 0.00 0.00 0.00 0.00 0.00 0.00 0.00 0.00 0.00 0.02 0.04 0.04 0.08 0.17 0.43 0.78 0.93 0.98 0.99 0.86 0.87 0.89 0.87 0.93 1.03 1.20 1.31 1.43 1.46 1.44 1.29 1.20 1.04 0.95 0.88 0.91 0.95 1.12
0.00 0.00 0.00 0.00 0.00 0.00 0.00 0.00 0.00 0.00 0.00 0.00 0.00 0.00 0.01 0.02 0.02 0.04 0.06 0.13 0.26 0.49 0.75 0.80 0.77 0.70 0.75 0.98 1.11 1.14 1.12 1.20 1.28 1.54 1.84 2.02 2.04 1.78 1.41 1.27 1.21 1.12 1.12 1.23
0.00 0.00 0.00 0.00 0.00 0.00 0.00 0.00 0.00 0.00 0.00 0.00 0.00 0.00 0.01 0.02 0.04 0.08 0.13 0.18 0.27 0.38 0.47 0.55 0.59 0.65 0.74 0.89 0.93 0.90 0.87 0.97 1.02 1.17 1.47 1.71 1.97 1.90 1.66 1.45 1.36 1.29 1.27 1.26
0.00 0.00 0.00 0.00 0.00 0.00 0.00 0.00 0.00 0.00 0.00 0.00 0.00 0.00 0.00 0.02 0.05 0.15 0.19 0.26 0.45 0.55 0.52 0.59 0.64 0.68 0.69 0.70 0.66 0.63 0.70 0.81 0.93 1.08 1.31 1.60 1.85 1.81 1.75 1.70 1.50 1.32 1.19 1.11
0.00 0.00 0.00 0.00 0.00 0.00 0.00 0.00 0.00 0.00 0.00 0.00 0.00 0.00 0.00 0.01 0.06 0.15 0.22 0.34 0.55 0.57 0.52 0.57 0.59 0.62 0.66 0.67 0.65 0.65 0.73 0.86 0.98 1.09 1.21 1.38 1.74 1.74 1.60 1.48 1.33 1.21 1.10 1.03
0.00 0.00 0.00 0.00 0.00 0.00 0.00 0.00 0.00 0.00 0.00 0.01 0.02 0.02 0.02 0.03 0.09 0.15 0.20 0.33 0.42 0.45 0.49 0.55 0.58 0.60 0.59 0.60 0.63 0.65 0.68 0.76 0.84 0.89 0.97 1.03 1.21 1.28 1.20 1.14 1.07 0.98 0.89 0.86
0.01 0.00 0.01 0.01 0.01 0.01 0.00 0.02 0.06 0.06 0.09 0.11 0.11 0.08 0.08 0.08 0.07 0.10 0.20 0.36 0.48 0.49 0.45 0.49 0.55 0.58 0.60 0.59 0.60 0.62 0.62 0.66 0.64 0.62 0.61 0.64 0.74 0.86 0.90 0.91 0.91 0.87 0.76 0.70
0.02 0.03 0.03 0.02 0.02 0.04 0.04 0.07 0.21 0.18 0.10 0.07 0.07 0.07 0.17 0.16 0.16 0.16 0.21 0.30 0.37 0.38 0.37 0.38 0.41 0.46 0.50 0.52 0.54 0.54 0.53 0.55 0.57 0.56 0.58 0.55 0.58 0.70 0.79 0.88 0.84 0.80 0.69 0.59
0.01 0.01 0.02 0.01 0.02 0.04 0.12 0.15 0.15 0.28 0.25 0.17 0.06 0.07 0.21 0.26 0.33 0.36 0.39 0.40 0.39 0.37 0.35 0.34 0.35 0.38 0.38 0.39 0.40 0.44 0.47 0.53 0.57 0.59 0.58 0.54 0.58 0.71 0.78 0.83 0.87 0.90 0.89 0.79
0.01 0.01 0.01 0.01 0.02 0.04 0.06 0.09 0.15 0.26 0.27 0.22 0.10 0.14 0.35 0.57 0.60 0.54 0.56 0.56 0.48 0.39 0.33 0.30 0.26 0.25 0.24 0.27 0.33 0.44 0.56 0.60 0.54 0.50 0.47 0.44 0.52 0.70 0.74 0.71 0.73 0.83 0.89 0.89
0.00 0.00 0.01 0.04 0.04 0.04 0.06 0.10 0.18 0.25 0.23 0.24 0.24 0.25 0.25 0.44 0.57 0.55 0.53 0.52 0.46 0.37 0.31 0.28 0.23 0.19 0.19 0.22 0.28 0.39 0.46 0.52 0.50 0.44 0.40 0.38 0.41 0.48 0.55 0.58 0.60 0.67 0.74 0.79
0.00 0.01 0.02 0.03 0.02 0.03 0.06 0.10 0.19 0.31 0.32 0.34 0.38 0.36 0.20 0.26 0.35 0.36 0.35 0.32 0.29 0.26 0.22 0.19 0.19 0.19 0.20 0.23 0.28 0.32 0.35 0.37 0.40 0.39 0.37 0.38 0.38 0.36 0.35 0.39 0.44 0.48 0.53 0.57
0.01 0.04 0.03 0.04 0.08 0.08 0.08 0.07 0.12 0.17 0.24 0.27 0.35 0.38 0.27 0.31 0.36 0.40 0.42 0.39 0.32 0.25 0.22 0.21 0.20 0.20 0.22 0.27 0.31 0.33 0.39 0.39 0.41 0.39 0.38 0.41 0.40 0.37 0.31 0.30 0.32 0.34 0.33 0.32
0.00 0.01 0.02 0.03 0.04 0.03 0.05 0.07 0.12 0.18 0.26 0.24 0.23 0.31 0.40 0.44 0.46 0.43 0.41 0.39 0.35 0.25 0.18 0.19 0.21 0.22 0.24 0.27 0.28 0.28 0.33 0.39 0.44 0.48 0.55 0.54 0.49 0.44 0.36 0.30 0.27 0.25 0.24 0.23
0.00 0.00 0.00 0.01 0.02 0.03 0.04 0.05 0.10 0.14 0.18 0.30 0.24 0.26 0.35 0.39 0.42 0.41 0.34 0.28 0.25 0.21 0.19 0.19 0.22 0.25 0.25 0.25 0.26 0.26 0.29 0.33 0.37 0.42 0.52 0.57 0.51 0.45 0.38 0.30 0.24 0.23 0.21 0.18
0.00 0.00 0.01 0.02 0.06 0.08 0.07 0.06 0.07 0.10 0.11 0.16 0.19 0.24 0.22 0.22 0.27 0.30 0.28 0.26 0.24 0.23 0.20 0.17 0.17 0.17 0.20 0.21 0.20 0.21 0.23 0.24 0.27 0.30 0.36 0.43 0.44 0.40 0.34 0.27 0.21 0.18 0.16 0.16
0.01 0.01 0.01 0.03 0.06 0.10 0.14 0.10 0.08 0.07 0.06 0.13 0.26 0.30 0.21 0.22 0.26 0.27 0.22 0.19 0.18 0.15 0.12 0.10 0.12 0.12 0.11 0.10 0.11 0.16 0.19 0.21 0.27 0.29 0.31 0.37 0.42 0.41 0.31 0.21 0.19 0.17 0.16 0.17
0.01 0.02 0.03 0.07 0.09 0.16 0.13 0.03 0.02 0.05 0.05 0.05 0.14 0.16 0.15 0.16 0.15 0.12 0.10 0.09 0.08 0.06 0.05 0.04 0.04 0.05 0.04 0.04 0.08 0.13 0.17 0.24 0.29 0.32 0.35 0.38 0.40 0.40 0.34 0.27 0.24 0.25 0.25 0.24
0.01 0.01 0.02 0.05 0.07 0.09 0.04 0.02 0.03 0.07 0.08 0.03 0.06 0.08 0.07 0.05 0.07 0.08 0.04 0.02 0.01 0.01 0.01 0.01 0.02 0.03 0.03 0.06 0.11 0.18 0.26 0.34 0.36 0.37 0.36 0.37 0.41 0.46 0.46 0.39 0.32 0.30 0.30 0.28
0.00 0.01 0.01 0.02 0.05 0.09 0.05 0.03 0.04 0.06 0.14 0.07 0.04 0.04 0.03 0.03 0.10 0.13 0.04 0.00 0.00 0.00 0.01 0.01 0.03 0.05 0.08 0.11 0.15 0.22 0.32 0.39 0.41 0.39 0.36 0.36 0.39 0.45 0.52 0.52 0.44 0.37 0.37 0.32
0.00 0.01 0.01 0.02 0.04 0.04 0.01 0.03 0.04 0.12 0.19 0.03 0.01 0.01 0.01 0.03 0.07 0.06 0.02 0.00 0.00 0.01 0.01 0.02 0.06 0.08 0.10 0.11 0.15 0.24 0.33 0.39 0.37 0.34 0.35 0.41 0.45 0.50 0.55 0.59 0.57 0.52 0.47 0.42
0.00 0.01 0.01 0.03 0.07 0.08 0.01 0.00 0.02 0.04 0.03 0.01 0.01 0.01 0.01 0.01 0.01 0.00 0.00 0.01 0.01 0.01 0.02 0.04 0.09 0.13 0.12 0.12 0.17 0.24 0.30 0.32 0.34 0.35 0.40 0.45 0.52 0.49 0.53 0.69 0.73 0.75 0.69 0.57
0.00 0.01 0.01 0.02 0.04 0.02 0.01 0.00 0.01 0.01 0.01 0.01 0.01 0.01 0.01 0.01 0.01 0.01 0.01 0.01 0.01 0.01 0.03 0.06 0.10 0.13 0.17 0.22 0.25 0.30 0.29 0.31 0.37 0.43 0.49 0.49 0.50 0.54 0.62 0.69 0.72 0.72 0.69 0.63
0.00 0.00 0.01 0.03 0.02 0.01 0.01 0.01 0.01 0.00 0.00 0.00 0.00 0.01 0.01 0.01 0.01 0.01 0.01 0.02 0.02 0.03 0.06 0.09 0.15 0.23 0.29 0.37 0.38 0.35 0.34 0.38 0.45 0.54 0.61 0.63 0.61 0.59 0.60 0.68 0.70 0.69 0.63 0.61
0.00 0.00 0.02 0.04 0.02 0.01 0.01 0.01 0.00 0.00 0.00 0.00 0.00 0.01 0.01 0.02 0.02 0.02 0.02 0.03 0.04 0.05 0.07 0.11 0.19 0.27 0.31 0.38 0.47 0.46 0.50 0.58 0.64 0.62 0.61 0.63 0.67 0.74 0.76 0.73 0.75 0.74 0.69 0.61
0.01 0.02 0.03 0.04 0.04 0.04 0.03 0.01 0.00 0.00 0.00 0.01 0.01 0.01 0.02 0.03 0.03 0.02 0.02 0.03 0.04 0.06 0.10 0.14 0.20 0.27 0.33 0.42 0.48 0.51 0.57 0.66 0.74 0.72 0.66 0.67 0.71 0.74 0.77 0.78 0.70 0.62 0.57 0.49

GEFSCGP_prec_meanprecacc_066.txt.gz
Total_Precipitation_Accumulation
0.00 0.00 0.00 0.00 0.00 0.00 0.00 0.00 0.00 0.00 0.00 0.00 0.00 0.00 0.00 0.02 0.04 0.05 0.08 0.19 0.47 0.91 1.16 1.27 1.40 1.43 1.54 1.62 1.72 1.83 1.90 1.97 1.85 1.82 1.82 1.73 1.50 1.38 1.17 1.03 0.93 0.94 0.96 1.12
0.00 0.00 0.00 0.00 0.00 0.00 0.00 0.00 0.00 0.00 0.00 0.00 0.00 0.00 0.01 0.02 0.03 0.05 0.08 0.20 0.37 0.65 0.99 1.12 1.18 1.29 1.39 1.58 1.90 2.11 1.93 1.81 1.75 1.91 2.16 2.30 2.23 1.90 1.48 1.31 1.25 1.14 1.13 1.23
0.00 0.00 0.00 0.00 0.00 0.00 0.00 0.00 0.00 0.00 0.00 0.00 0.00 0.00 0.02 0.04 0.06 0.11 0.18 0.28 0.43 0.60 0.73 0.85 0.87 0.93 1.07 1.33 1.58 1.62 1.39 1.39 1.36 1.45 1.67 1.84 2.08 1.99 1.74 1.50 1.38 1.31 1.28 1.27
0.00 0.00 0.00 0.00 0.00 0.00 0.00 0.00 0.00 0.00 0.00 0.00 0.00 0.00 0.01 0.04 0.08 0.20 0.30 0.41 0.61 0.74 0.75 0.80 0.85 0.93 0.97 0.92 0.89 0.89 0.95 1.02 1.10 1.22 1.43 1.69 1.94 1.89 1.82 1.75 1.53 1.35 1.22 1.14
0.00 0.00 0.00 0.00 0.00 0.00 0.00 0.00 0.00 0.00 0.00 0.00 0.00 0.01 0.02 0.05 0.11 0.22 0.34 0.49 0.68 0.69 0.66 0.68 0.75 0.81 0.81 0.79 0.80 0.81 0.90 1.04 1.14 1.23 1.34 1.51 1.84 1.82 1.66 1.54 1.39 1.29 1.20 1.12
0.00 0.00 0.00 0.00 0.00 0.00 0.00 0.00 0.00 0.00 0.01 0.02 0.03 0.04 0.04 0.10 0.21 0.30 0.37 0.51 0.56 0.55 0.58 0.63 0.65 0.67 0.68 0.70 0.79 0.83 0.85 0.92 0.98 1.02 1.09 1.14 1.29 1.35 1.27 1.21 1.15 1.05 0.96 0.92
0.02 0.01 0.02 0.01 0.01 0.01 0.01 0.02 0.06 0.06 0.11 0.13 0.15 0.13 0.15 0.24 0.33 0.45 0.51 0.59 0.63 0.60 0.53 0.54 0.60 0.64 0.68 0.69 0.72 0.77 0.80 0.82 0.79 0.75 0.72 0.73 0.82 0.94 0.98 0.97 0.97 0.94 0.83 0.76
0.04 0.05 0.05 0.03 0.03 0.04 0.05 0.08 0.21 0.19 0.11 0.09 0.10 0.13 0.29 0.40 0.51 0.54 0.49 0.47 0.46 0.44 0.41 0.42 0.45 0.51 0.55 0.59 0.62 0.64 0.65 0.67 0.68 0.68 0.69 0.64 0.68 0.78 0.87 0.94 0.91 0.87 0.77 0.66
0.02 0.02 0.02 0.02 0.03 0.05 0.13 0.16 0.16 0.28 0.25 0.18 0.10 0.16 0.32 0.41 0.54 0.52 0.50 0.48 0.46 0.42 0.39 0.36 0.37 0.40 0.40 0.41 0.43 0.47 0.52 0.59 0.63 0.66 0.65 0.59 0.62 0.75 0.82 0.87 0.90 0.94 0.93 0.84
0.01 0.01 0.01 0.01 0.03 0.07 0.09 0.11 0.17 0.27 0.28 0.23 0.13 0.24 0.48 0.73 0.76 0.67 0.69 0.65 0.55 0.44 0.36 0.31 0.27 0.25 0.25 0.28 0.34 0.45 0.57 0.61 0.55 0.52 0.49 0.47 0.54 0.72 0.76 0.72 0.74 0.85 0.91 0.91
0.00 0.00 0.01 0.04 0.05 0.07 0.10 0.13 0.20 0.26 0.24 0.27 0.29 0.35 0.38 0.58 0.71 0.73 0.68 0.62 0.51 0.40 0.32 0.28 0.23 0.19 0.19 0.22 0.28 0.39 0.46 0.53 0.50 0.45 0.41 0.38 0.42 0.49 0.56 0.59 0.61 0.68 0.75 0.81
0.00 0.01 0.02 0.04 0.04 0.05 0.08 0.12 0.21 0.33 0.33 0.36 0.43 0.45 0.29 0.37 0.45 0.46 0.41 0.35 0.30 0.27 0.22 0.20 0.19 0.19 0.20 0.23 0.28 0.32 0.35 0.37 0.40 0.39 0.37 0.38 0.38 0.37 0.35 0.39 0.44 0.49 0.53 0.58
0.01 0.04 0.03 0.04 0.10 0.12 0.13 0.11 0.15 0.20 0.26 0.30 0.40 0.45 0.33 0.35 0.40 0.44 0.44 0.40 0.32 0.25 0.22 0.21 0.20 0.20 0.22 0.27 0.31 0.33 0.39 0.39 0.41 0.39 0.38 0.41 0.40 0.37 0.31 0.30 0.32 0.34 0.34 0.33
0.01 0.02 0.03 0.05 0.05 0.06 0.10 0.12 0.16 0.21 0.30 0.29 0.28 0.36 0.44 0.47 0.48 0.44 0.41 0.40 0.35 0.25 0.18 0.19 0.21 0.22 0.24 0.27 0.28 0.28 0.33 0.39 0.44 0.48 0.55 0.55 0.49 0.44 0.36 0.30 0.27 0.25 0.24 0.23
0.00 0.00 0.01 0.01 0.02 0.06 0.08 0.09 0.14 0.18 0.22 0.34 0.27 0.28 0.37 0.39 0.43 0.41 0.34 0.29 0.25 0.21 0.19 0.19 0.22 0.25 0.25 0.25 0.26 0.26 0.29 0.33 0.37 0.42 0.52 0.57 0.51 0.45 0.38 0.30 0.24 0.23 0.21 0.19
0.00 0.00 0.01 0.03 0.07 0.10 0.11 0.12 0.12 0.12 0.12 0.17 0.20 0.25 0.22 0.22 0.27 0.30 0.28 0.26 0.24 0.23 0.20 0.17 0.17 0.17 0.20 0.21 0.20 0.21 0.23 0.24 0.27 0.31 0.36 0.43 0.44 0.40 0.34 0.27 0.21 0.18 0.16 0.17
0.01 0.01 0.01 0.03 0.06 0.11 0.17 0.14 0.11 0.08 0.07 0.13 0.26 0.30 0.21 0.22 0.26 0.27 0.22 0.19 0.18 0.15 0.12 0.10 0.12 0.12 0.11 0.10 0.11 0.16 0.19 0.21 0.27 0.30 0.31 0.37 0.42 0.41 0.32 0.22 0.19 0.18 0.16 0.17
0.02 0.02 0.03 0.07 0.09 0.18 0.16 0.04 0.03 0.06 0.05 0.05 0.14 0.16 0.15 0.16 0.15 0.12 0.10 0.09 0.08 0.06 0.05 0.04 0.04 0.05 0.04 0.04 0.08 0.13 0.17 0.24 0.29 0.32 0.36 0.39 0.40 0.40 0.35 0.28 0.25 0.26 0.25 0.24
0.02 0.01 0.02 0.05 0.08 0.11 0.05 0.03 0.04 0.07 0.08 0.03 0.06 0.08 0.07 0.05 0.07 0.08 0.04 0.02 0.01 0.01 0.01 0.01 0.02 0.03 0.03 0.06 0.11 0.18 0.26 0.34 0.36 0.37 0.37 0.38 0.41 0.47 0.47 0.40 0.33 0.30 0.31 0.29
0.01 0.01 0.01 0.02 0.05 0.10 0.06 0.03 0.04 0.06 0.14 0.07 0.04 0.04 0.03 0.03 0.10 0.13 0.04 0.00 0.00 0.00 0.01 0.01 0.03 0.05 0.08 0.11 0.15 0.22 0.32 0.40 0.42 0.40 0.36 0.37 0.40 0.46 0.53 0.52 0.44 0.38 0.39 0.33
0.01 0.01 0.01 0.02 0.04 0.04 0.02 0.03 0.04 0.12 0.19 0.03 0.01 0.01 0.01 0.03 0.07 0.06 0.02 0.00 0.00 0.01 0.01 0.02 0.06 0.08 0.10 0.11 0.16 0.25 0.34 0.40 0.38 0.35 0.36 0.42 0.46 0.51 0.55 0.59 0.57 0.53 0.48 0.43
0.01 0.01 0.01 0.03 0.07 0.08 0.01 0.00 0.02 0.04 0.03 0.01 0.01 0.01 0.01 0.01 0.01 0.00 0.00 0.01 0.01 0.01 0.02 0.04 0.09 0.13 0.12 0.12 0.18 0.26 0.32 0.33 0.35 0.37 0.42 0.46 0.53 0.50 0.54 0.70 0.74 0.76 0.70 0.58
0.00 0.01 0.01 0.02 0.04 0.02 0.01 0.00 0.01 0.01 0.01 0.01 0.01 0.01 0.01 0.01 0.01 0.01 0.01 0.01 0.01 0.01 0.03 0.06 0.11 0.14 0.17 0.22 0.27 0.33 0.31 0.33 0.39 0.46 0.51 0.51 0.52 0.55 0.63 0.70 0.73 0.73 0.70 0.65
0.00 0.00 0.01 0.03 0.02 0.01 0.01 0.01 0.01 0.00 0.00 0.00 0.00 0.01 0.01 0.01 0.01 0.01 0.01 0.02 0.02 0.03 0.06 0.09 0.15 0.23 0.31 0.38 0.39 0.37 0.36 0.41 0.49 0.57 0.64 0.65 0.63 0.61 0.61 0.70 0.72 0.70 0.64 0.63
0.00 0.00 0.02 0.04 0.02 0.01 0.01 0.01 0.00 0.00 0.00 0.00 0.00 0.01 0.01 0.02 0.02 0.02 0.02 0.03 0.04 0.05 0.08 0.12 0.20 0.29 0.33 0.40 0.49 0.48 0.52 0.61 0.68 0.66 0.64 0.66 0.70 0.76 0.77 0.74 0.76 0.75 0.71 0.62
0.01 0.02 0.03 0.04 0.04 0.04 0.03 0.01 0.00 0.00 0.00 0.01 0.01 0.01 0.02 0.03 0.03 0.02 0.02 0.03 0.04 0.06 0.10 0.16 0.22 0.30 0.35 0.44 0.51 0.53 0.60 0.70 0.79 0.77 0.70 0.71 0.73 0.76 0.79 0.79 0.71 0.62 0.57 0.49